Location: Fort Wayne
(41.1310°N, 85.1290°W)
Time: 18:03:30
(UTC-05:00)

Cosmos 1980 - Visible Passes

Search period start: 20 February 2018 00:00
Search period end: 02 March 2018 00:00
Orbit: 838 x 849 km, 71.0° (Epoch: 20 February)

Date Brightness Start Highest point End Pass type
(mag) Time Alt. Az. Time Alt. Az. Time Alt. Az.
20 Feb 6.1 20:07:18 10° NW 20:11:43 24° W 20:16:06 10° SSW visible
21 Feb 6.0 19:52:40 10° NW 19:57:10 25° WSW 20:01:39 10° SSW visible
22 Feb 6.0 19:38:01 10° NW 19:42:38 26° WSW 19:47:12 10° SSW visible
23 Feb 6.0 19:23:24 10° NW 19:28:04 27° WSW 19:32:44 10° SSW visible
24 Feb 7.5 06:50:53 10° ESE 06:52:23 11° E 06:53:51 10° E visible
24 Feb 6.0 19:08:45 10° NW 19:13:32 28° WSW 19:18:16 10° SSW visible
25 Feb 7.5 06:36:57 10° ESE 06:37:50 10° E 06:38:44 10° E visible
25 Feb 6.0 18:54:08 10° NW 18:58:59 29° WSW 19:03:48 10° SSW visible
